Погода в Верхних Полянах

Россия / Пензенская область     52°53′48″N   43°32′06″E
темп.,
°C
ветер,
м/с
пор.,
м/с
влажн.,
%
обл.,
%
осадки,
мм/ч
давл.,
гПа
погр.,
м
28 ноября, вс
вс2800:000ююв91894100 0.6 1012625
03:00+1ю71599100 2.4 1010520
06:00+1ю613100100 0.6 1010423
09:00+1ю511100100 1.2 1011339
12:00+1ю410100100 2.5 1011264
15:00+1ю39100100 2.7 1012220
18:00+1ю35100100 0.1 1013105
21:00+1ю25100100 0.1 101488
29 ноября, пн
пн2900:00+2юв35100100 0.1 101486
03:00+2юв36100100 0.1 1014111
06:00+2юв511100100 0.0 1013261
09:00+3юв613100100 0.6 1011299
12:00+3юв818100100 3.8 1007517
15:00+5ююв81799100 5.4 1005545
18:00+5ю71699100 1.2 1004436
21:00+6ююв81797100 1.4 1002450
30 ноября, вт
вт3000:00+7ююв102094100 2.9 996726
03:00+9ю112392100 7.5 9911105
06:00+9ю122287100 0.8 9881178
09:00+10ююз122084100 1.9 9861125
12:00+7юз14226999 0.3 9881494
15:00+5юз142564100 0.3 9881691
18:00+3юз142267100 0.0 9921229
21:00+1юз916708 0.0 994939
1 декабря, ср
ср100:000юз7137621 0.0 994749
03:000ююз51079100 0.0 994614
06:000юз5980100 0.0 994645
09:00−1юз3587100 0.1 994559
12:000з6977100 0.1 993894
15:00−1з6966100 0.2 9941206
18:00−2зюз61073100 0.1 9961023
21:00−3зюз6117210 0.1 997763
2 декабря, чт
чт200:00−2зюз61174100 0.0 998908
03:00−2зюз71082100 0.0 999976
06:00−2зюз7117964 0.1 1001954
09:00−3зюз6107551 0.1 1005786
12:00−2зюз6959100 0.0 1005746
15:00−1ююз61167100 0.0 1005693
18:00−1ююз71595100 0.4 1005670
21:00+1юз71597100 0.9 1005701